Location: Nairn
(57.5833°N, 3.8667°W)
Time: 20:34:21
(UTC+00:00)

A-11 Canister half - Visible Passes

Search period start: 04 December 2023 00:00
Search period end: 14 December 2023 00:00
Orbit: 1514 x 1686 km, 47.2° (Epoch: 03 December)

Date Brightness Start Highest point End Pass type
(mag) Time Alt. Az. Time Alt. Az. Time Alt. Az.
04 Dec 10.2 02:32:40 30° ESE 02:32:40 30° ESE 02:37:44 10° E visible
04 Dec 9.4 04:30:51 43° SSW 04:32:10 45° S 04:41:35 10° ESE visible
04 Dec 10.1 06:29:03 15° W 06:35:31 30° SSW 06:43:50 10° SSE visible
05 Dec 10.5 02:11:01 24° ESE 02:11:01 24° ESE 02:14:45 10° E visible
05 Dec 9.5 04:09:13 46° S 04:09:15 46° S 04:18:39 10° ESE visible
05 Dec 10.0 06:07:24 20° WSW 06:12:38 31° SSW 06:21:03 10° SSE visible
06 Dec 10.8 01:49:23 19° ESE 01:49:23 19° ESE 01:51:47 10° E visible
06 Dec 9.6 03:47:35 44° SSE 03:47:35 44° SSE 03:55:44 10° ESE visible
06 Dec 10.0 05:45:47 25° WSW 05:49:45 32° SSW 05:58:16 10° SSE visible
06 Dec 10.7 07:48:03 10° WSW 07:52:10 13° SW 07:56:18 10° SSW visible
07 Dec 11.0 01:27:47 13° E 01:27:47 13° E 01:28:49 10° E visible
07 Dec 9.8 03:25:59 39° SSE 03:25:59 39° SSE 03:32:49 10° ESE visible
07 Dec 9.8 05:24:11 29° SW 05:26:52 33° SSW 05:35:28 10° SSE visible
07 Dec 10.7 07:24:44 10° W 07:29:21 14° SW 07:33:59 10° SSW visible
08 Dec 10.1 03:04:24 33° SE 03:04:24 33° SE 03:09:53 10° ESE visible
08 Dec 9.7 05:02:36 33° SW 05:03:58 34° SSW 05:12:39 10° SSE visible
08 Dec 10.6 07:01:29 10° W 07:06:31 15° SW 07:11:36 10° SSW visible
09 Dec 10.4 02:42:51 26° SE 02:42:51 26° SE 02:46:57 10° ESE visible
09 Dec 9.7 04:41:03 35° SSW 04:41:05 35° SSW 04:49:49 10° SSE visible
09 Dec 10.5 06:39:15 12° WSW 06:43:42 16° SW 06:49:09 10° SSW visible
10 Dec 10.7 02:21:19 20° ESE 02:21:19 20° ESE 02:24:00 10° ESE visible
10 Dec 9.8 04:19:31 35° S 04:19:31 35° S 04:27:00 10° SE visible
10 Dec 10.4 06:17:44 15° WSW 06:20:52 17° SW 06:26:40 10° SSW visible
11 Dec 11.0 01:59:50 14° ESE 01:59:50 14° ESE 02:01:04 10° ESE visible
11 Dec 10.0 03:58:03 32° S 03:58:03 32° S 04:04:08 10° SE visible
11 Dec 10.3 05:56:15 17° WSW 05:58:02 18° SW 06:04:08 10° S visible
12 Dec 10.2 03:36:36 27° SSE 03:36:36 27° SSE 03:41:18 10° SE visible
12 Dec 10.3 05:34:48 19° SW 05:35:12 19° SW 05:41:34 10° S visible
13 Dec 10.5 03:15:12 22° SSE 03:15:12 22° SSE 03:18:26 10° SE visible
13 Dec 10.3 05:13:24 20° SW 05:13:24 20° SW 05:18:58 10° S visible
